Lancaster, OH

5:46 PM EDT on October 01, 2016 (GMT -0400)
Fairfield County

Weather History for KLHQ - November, 2012

Change the Weather History Date:

Saturday, November 3, 2012

  Actual Average Record
Temperature  
Mean Temperature 42 °F -  
Max Temperature 46 °F 61 °F 79 °F (1987)
Min Temperature 39 °F 37 °F 19 °F (1996)
Degree Days  
Heating Degree Days 23    
Moisture  
Dew Point 30 °F    
Average Humidity 62    
Maximum Humidity 73    
Minimum Humidity 52    
Precipitation  
Precipitation 0.00 in - - ()
Sea Level Pressure  
Sea Level Pressure 30.14 in    
Wind  
Wind Speed 2 mph (North)    
Max Wind Speed 7 mph    
Max Gust Speed -    
Visibility 10 miles    
Events      
Averages and records for this station are not official NWS values.
T = Trace of Precipitation, MM = Missing Value Source: NWS Daily Summary

Daily Weather History Graph

Daily Weather History Graph

Search for Another Location

Airport or City:

Trip Planner

Search our weather history database for the weather conditions in past years. The results will help you decide how hot, cold, wet, or windy it might be!

Date:

Astronomy

Nov. 03, 2012 Rise Set
Actual Time 8:02 AM EDT 6:25 PM EDT
Civil Twilight 7:33 AM EDT 6:53 PM EDT
Nautical Twilight 7:01 AM EDT 7:25 PM EDT
Astronomical Twilight 6:30 AM EDT 7:57 PM EDT
Moon 10:06 PM EDT (11/3) 12:05 PM EDT (11/3)
Length of Visible Light 11h 19m
Length of Day
10h 23m
Waning Gibbous, 80% of the Moon is Illuminated
Nov 3
Waning Gibbous
Nov 6
Last Quarter
Nov 13
New
Nov 20
First Quarter
Nov 28
Full

Hourly Weather History & Observations

Time (EDT) Temp. Windchill Dew Point Humidity Pressure Visibility Wind Dir Wind Speed Gust Speed Precip Events Conditions
12:53 AM 39.9 °F - 30.9 °F 70% 30.09 in 10.0 mi Calm Calm - N/A   Overcast
1:53 AM 39.9 °F - 30.9 °F 70% 30.09 in 10.0 mi Calm Calm - N/A   Overcast
2:53 AM 39.0 °F - 30.9 °F 73% 30.09 in 10.0 mi Calm Calm - N/A   Overcast
3:53 AM 39.9 °F 37.8 °F 30.0 °F 68% 30.10 in 10.0 mi West 3.5 mph - N/A   Overcast
4:53 AM 39.9 °F 36.7 °F 28.9 °F 65% 30.11 in 10.0 mi WNW 4.6 mph - N/A   Overcast
5:53 AM 39.9 °F 37.8 °F 30.0 °F 68% 30.13 in 10.0 mi NNW 3.5 mph - N/A   Overcast
6:53 AM 39.9 °F 35.8 °F 30.0 °F 68% 30.14 in 10.0 mi NNW 5.8 mph - N/A   Overcast
7:53 AM 39.9 °F 37.8 °F 28.9 °F 65% 30.15 in 10.0 mi NNW 3.5 mph - N/A   Overcast
8:53 AM 41.0 °F 39.0 °F 28.9 °F 62% 30.17 in 10.0 mi NNW 3.5 mph - N/A   Overcast
9:53 AM 42.1 °F 37.7 °F 28.0 °F 58% 30.19 in 10.0 mi NNW 6.9 mph - N/A   Overcast
10:53 AM 42.1 °F 39.2 °F 28.0 °F 58% 30.19 in 10.0 mi NNW 4.6 mph - N/A   Overcast
11:53 AM 43.0 °F 41.3 °F 28.9 °F 58% 30.19 in 10.0 mi NW 3.5 mph - N/A   Partly Cloudy
12:53 PM 44.1 °F - 28.0 °F 53% 30.16 in 10.0 mi Calm Calm - N/A   Clear
1:53 PM 45.0 °F 43.5 °F 28.0 °F 52% 30.15 in 10.0 mi NE 3.5 mph - N/A   Partly Cloudy
2:53 PM 44.1 °F - 28.0 °F 53% 30.14 in 10.0 mi Calm Calm - N/A   Scattered Clouds
3:53 PM 45.0 °F - 28.0 °F 52% 30.13 in 10.0 mi Calm Calm - N/A   Mostly Cloudy
4:53 PM 45.0 °F - 28.9 °F 53% 30.12 in 10.0 mi Calm Calm - N/A   Partly Cloudy
5:53 PM 45.0 °F - 30.9 °F 58% 30.12 in 10.0 mi Calm Calm - N/A   Scattered Clouds
6:53 PM 43.0 °F - 30.9 °F 62% 30.13 in 9.0 mi Calm Calm - N/A   Overcast
7:53 PM 43.0 °F 41.3 °F 34.0 °F 71% 30.13 in 10.0 mi NNE 3.5 mph - N/A   Overcast
8:53 PM 43.0 °F 40.3 °F 32.0 °F 65% 30.13 in 10.0 mi ENE 4.6 mph - N/A   Overcast
9:53 PM 42.1 °F 40.2 °F 30.9 °F 65% 30.14 in 10.0 mi East 3.5 mph - N/A   Overcast
10:53 PM 42.1 °F 40.2 °F 30.9 °F 65% 30.14 in 10.0 mi ENE 3.5 mph - N/A   Overcast
11:53 PM 41.0 °F 38.0 °F 30.9 °F 67% 30.14 in 10.0 mi ENE 4.6 mph - N/A   Overcast